#timestamp,LO_Frequency,Hit,StdDev 
1512003615.8,286046998.2,N
1512003635.7,286047000.7,N
1512003655.5,286046999.7,N
1512003675.3,286047001.0,N
1512003695.2,286047001.1,N
1512003715.0,286047000.9,N
1512003715.9,286047000.9,N
1512003735.8,286046999.7,N
1512003755.6,286047000.3,N
1512003775.5,286047000.4,N
1512003795.3,286047002.4,N
1512003815.1,286047004.4,Y
1512003835.9,286047002.5,P
1512003855.7,286047002.8,N
1512003875.5,286047002.0,N
1512003895.4,286047001.9,N
1512003915.2,286047002.3,N
1512003935.1,286047002.2,N
1512003936.0,286047002.2,Y
1512003955.8,286046998.3,P
1512003975.6,286046998.5,N
1512003995.5,286046998.1,N
1512004015.3,286046999.0,N
1512004035.2,286046997.2,N
1512004055.9,286046997.2,N
1512004075.7,286046997.6,N
1512004095.6,286046997.1,N
1512004115.4,286046999.1,N
1512004135.2,286046999.1,N
1512004155.1,286046995.0,Y
1512004156.0,286046995.0,P
1512004175.8,286046996.9,N
1512004195.7,286046996.6,N
1512004215.5,286046998.9,N
1512004235.3,286047000.2,N
1512004255.2,286047002.7,N
1512004275.0,286047000.2,N
1512004275.9,286047000.2,N
1512004295.8,286047002.8,N
1512004315.6,286047000.4,N
1512004335.4,286047000.2,N
1512004355.3,286047002.8,N
1512004375.1,286047002.4,N
1512004395.8,286046999.8,N
1512004415.7,286046999.9,N
1512004435.5,286047000.4,N
1512004455.4,286046998.3,N
1512004475.2,286047000.3,N
1512004495.0,286046998.2,N
1512004495.9,286046998.2,N
1512004515.8,286046998.7,N
1512004535.6,286046998.3,N
1512004555.4,286046999.2,N
1512004575.3,286046996.6,N
1512004595.1,286046998.7,N
1512004615.9,286047001.0,N
1512004635.7,286046999.8,N
1512004655.5,286047002.8,N
1512004675.4,286047001.6,N
1512004695.2,286047002.5,N
1512004715.0,286047002.5,N
1512004715.9,286047002.5,N
1512004735.8,286046999.8,N
1512004755.6,286046999.7,N
1512004775.5,286047002.1,N
1512004795.3,286047002.7,N
1512004815.1,286047001.6,N
1512004835.9,286047002.4,N
1512004855.7,286047002.6,N
1512004875.5,286047003.9,N
1512004895.4,286047004.1,N
1512004915.2,286047001.7,N
1512004935.1,286047005.5,N
1512004936.0,286047005.5,N
1512004955.8,286047004.2,N
1512004975.6,286047004.2,N
1512004995.5,286047001.8,N
1512005015.3,286047004.2,N
1512005035.1,286047003.0,N
1512005055.9,286047003.4,N
1512005075.7,286047005.9,N
1512005095.6,286047005.6,N
1512005115.4,286047004.4,N
1512005135.2,286047002.2,N
1512005155.1,286046999.7,N
1512005156.0,286046999.7,N
1512005175.8,286047002.8,N
1512005195.7,286047001.3,N
1512005215.5,286047002.1,N
1512005235.3,286047002.2,N
1512005255.2,286047002.4,N
1512005275.0,286047002.3,N
1512005275.9,286047002.3,N
1512005295.7,286047004.3,N
1512005315.6,286047001.7,N
1512005335.4,286047002.3,N
1512005355.3,286047001.9,N
1512005375.1,286047001.8,N
1512005376.0,286047001.8,N
1512005395.8,286047001.3,N
1512005415.7,286047002.1,N
1512005435.5,286047004.3,N
1512005455.3,286047001.7,N
1512005475.2,286047004.4,N
1512005495.0,286047003.6,N
1512005495.9,286047003.6,N
1512005515.8,286047005.8,Y
1512005535.6,286046999.7,P
1512005555.4,286047000.7,N
1512005575.3,286047001.1,N
1512005595.1,286046998.5,N
1512005615.9,286046998.4,N
1512005635.7,286046998.4,N
1512005655.5,286047000.7,N
1512005675.4,286047000.9,N
1512005695.2,286046999.8,N
1512005715.0,286046999.8,N
1512005715.9,286046999.8,N
1512005735.8,286047000.9,N
1512005755.6,286047000.6,N
1512005775.5,286047000.6,N
1512005795.3,286046999.3,N
1512005815.1,286047001.0,N
1512005835.9,286046998.3,N
1512005855.7,286046999.2,N
1512005875.5,286046998.5,N
1512005895.4,286046999.4,N
1512005915.2,286046998.6,N
1512005935.1,286046998.7,N
1512005936.0,286046998.7,N
1512005955.8,286046996.7,N
1512005975.6,286046997.0,N
1512005995.5,286046997.2,N
1512006015.3,286046999.2,N
1512006035.1,286046998.8,N
1512006055.9,286047000.6,N
1512006075.7,286046999.8,N
1512006095.6,286047002.4,N
1512006115.4,286047002.7,N
1512006135.2,286047001.8,N
1512006155.1,286047002.6,N
1512006156.0,286047002.6,N
1512006175.8,286047002.5,N
1512006195.6,286046999.8,N
1512006215.5,286047002.6,N
1512006235.3,286047002.6,N
1512006255.2,286047001.9,N
1512006275.9,286047004.0,N
1512006295.7,286047002.4,N
1512006315.6,286046999.8,N
1512006335.4,286047002.7,N
1512006355.2,286047000.6,N
1512006375.1,286047002.8,N
1512006376.0,286047002.8,N
1512006395.8,286047000.1,N
1512006415.7,286047000.1,N
1512006435.5,286046999.8,N
1512006455.3,286047000.4,N
1512006475.2,286047001.0,N
1512006495.0,286046999.9,N
1512006495.9,286046999.9,N
1512006515.8,286047001.0,N
1512006535.6,286046999.2,N
1512006555.4,286046998.5,N
1512006575.3,286046998.3,N
1512006595.1,286046998.3,N
1512006615.9,286047000.3,N
1512006635.7,286047000.6,N
1512006655.5,286046999.8,N
1512006675.4,286047001.0,N
1512006695.2,286046999.7,N
1512006715.0,286047000.7,N
1512006715.9,286047000.7,N
1512006735.8,286046999.9,N
1512006755.6,286047000.6,N
1512006775.5,286047000.2,N
1512006795.3,286047002.7,N
1512006815.1,286047001.1,N
1512006835.9,286047002.7,N
1512006855.7,286047002.4,N
1512006875.6,286047001.4,N
1512006895.4,286047002.1,N
1512006915.2,286047002.0,N
1512006935.1,286047000.3,N
1512006936.0,286047000.3,N
1512006955.8,286047002.7,N
1512006975.6,286046999.7,N
1512006995.5,286047000.4,N
1512007015.3,286047000.1,N
1512007035.2,286046999.9,N
1512007055.9,286047001.0,N
1512007075.7,286047001.2,N
1512007095.6,286047000.8,N
1512007115.4,286047000.8,N
1512007135.2,286047000.5,N
1512007155.1,286047000.6,N
1512007156.0,286047000.6,N
1512007175.8,286047000.5,N
1512007195.7,286046998.7,N
